SL-12 R/B(AUX MOTOR), 29682

Orbit data source: Space-Track

SL-12 R/B(AUX MOTOR), 29682 is space debris in HEO originally from a launch on Mon, 25 Dec 2006 UTC launched from the Tyuratam Missile And Space Complex (TTMTR). Debris objects in space refer to the collection of defunct objects orbiting the Earth. Examples of debris include non-operational satellites, rocket bodies, and fragments generated from explosions, collisions, or faulty payload assembly.

Loading next visibility...
Identifier
29682, 2006-062H
Orbit
HEO
Country
Flag of CISCIS
Related business
Manufacturer
RKKE
Mission
Spacecraft
Bus & Motor
SOZ, Unknown motor
Mass
56 kg wet, 56 kg dry
Launch date (UTC)
2006-12-25 (19 years ago)
Launch vehicle
Unknown
Launch site
Tyuratam Missile And Space Complex (TTMTR)
Object type
Payload
Rocket body
Debris
Shape & HBR
Cyl, 0.6 m
Radar Cross Section
0.660 m², Medium (>0.1 m² and < 1m²)

Expand to show TLE details & history
Last TLE update: 1 week ago

TLE from 1 week ago
0 SL-12 R/B(AUX MOTOR)
1 29682U 06062H   26165.10404317 -.00000040  00000-0  18500-3 0  9993
2 29682  65.1767  19.6593 5623363 252.2801  41.2824  4.25383002301442
Epoch: 2026-06-14T02:29Z
TLE epoch observation values (Epoch: 2026-06-14T02:29:49.329Z)
Latitude
-0.00007°
Longitude
79.81099°
Altitude
6,903.565 km
Speed
5.938 km/s
True Right ascension
01h 18m 42s
True Declination
0° 00' 00"
Sunlit
Object was in daylight at epoch
Visualization orbit readout
Latitude
Unknown
Longitude
Unknown
Altitude
Unknown
Speed
Unknown
Apparent Right ascension
Unknown
Apparent Declination
Unknown
Sunlit
N/A
Visualization observer readout
Local Sidereal Time
23:18:28
Azimuth
Unknown
Elevation
Unknown
Doppler factor
Unknown
Orbital elements
Apogee altitude
18,757.646 km
Perigee altitude
663.253 km
Semi-major axis
16,088.587 km
Eccentricity
0.56234
Inclination
65.1767°
RAAN
19.6593°
Arg. of periapsis
252.2801°
True anomaly
107.76329°
Mean anomaly
41.2824°
Eccentric anomaly
71.90913°
Mean motion
1.06357 °/min
Orbital period
338.48 mins
BSTAR
0.000185
Loading maneuver chart data...
Computing Atmospheric mass density...
Loading historical data...
Loading historical data...
Loading historical data...
Loading historical data...
Loading historical data...
Loading historical data...
Loading historical data...

Documentation

Showing up to 5 results
|